Location: G�migny
(47.9646°N, 1.6950°E)
Time: 20:23:49
(UTC+00:00)

Cosmos 990 Rocket - Pass Details

Date: 23 October 2019
Orbit: 746 x 769 km, 74.0° (Epoch: 19 November)

Event Time Altitude Azimuth Distance (km) Brightness Sun altitude
Rises 18:12:14 0° 340° (NNW) 3,226 7.5 -14.3°
Reaches altitude 10° 18:14:41 10° 346° (NNW) 2,300 6.6 -14.7°
Maximum altitude 18:19:46 51° 62° (ENE) 958 4.1 -15.6°
Enters shadow 18:23:49 16° 134° (SE) 1,920 5.7 -16.2°
